Location: Unspecified
(0.0000°N, 0.0000°E)
Time: 17:55:29
(UTC+00:00)

S-56A Canister/Altair - Visible Passes

Search period start: 18 January 2020 00:00
Search period end: 28 January 2020 00:00
Orbit: 634 x 2498 km, 38.9° (Epoch: 18 January)

Date Brightness Start Highest point End Pass type
(mag) Time Alt. Az. Time Alt. Az. Time Alt. Az.
18 Jan 10.1 05:15:47 10° NNW 05:22:45 36° NE 05:32:44 10° ESE visible
18 Jan 9.9 20:16:29 10° W 20:21:15 18° NW 20:23:08 16° NNW visible
19 Jan 10.2 04:43:46 10° N 04:49:54 29° NE 04:58:25 10° ESE visible
19 Jan 9.8 19:42:09 10° W 19:48:35 24° NW 19:52:31 14° N visible
20 Jan 10.1 04:13:05 14° N 04:17:07 22° NE 04:23:56 10° E visible
20 Jan 9.8 19:07:59 10° WSW 19:15:54 32° NW 19:21:31 10° NNE visible
21 Jan 10.2 03:42:27 15° NNE 03:44:21 16° NE 03:49:12 10° E visible
21 Jan 9.0 05:40:45 10° NW 05:48:15 90° ENE 05:59:56 10° SE visible
21 Jan 9.7 18:33:53 10° WSW 18:43:10 41° NW 18:49:29 10° NNE visible
22 Jan 10.5 03:11:49 11° NE 03:11:49 11° NE 03:13:41 10° ENE visible
22 Jan 8.8 05:09:16 15° NW 05:15:18 77° NE 05:26:10 10° SE visible
23 Jan 8.8 04:38:39 28° NNW 04:42:27 64° NE 04:52:22 10° ESE visible
24 Jan 8.7 04:08:02 42° N 04:09:41 51° NE 04:18:33 10° ESE visible
24 Jan 10.5 19:04:28 10° WNW 19:08:35 14° NW 19:12:06 10° NNW visible
25 Jan 9.1 03:37:25 39° NE 03:37:25 39° NE 03:44:44 10° ESE visible
25 Jan 9.4 05:34:52 10° WNW 05:41:33 41° SW 05:51:31 10° SSE visible
25 Jan 10.4 18:29:12 10° W 18:35:44 19° NW 18:40:53 10° N visible
26 Jan 9.9 03:06:47 24° E 03:06:47 24° E 03:10:52 10° ESE visible
26 Jan 9.0 05:04:13 22° W 05:08:31 47° SW 05:18:04 10° SE visible
27 Jan 10.7 02:36:08 12° E 02:36:08 12° E 02:36:55 10° E visible
27 Jan 8.5 04:33:35 42° W 04:35:34 55° SW 04:44:38 10° SE visible
